www.pogodaiklimat.ru

Погода и климат >> Архив погоды >> Россия >> Якутия >> Иэма


ПОГОДА в Иэме

  • Прогноз погоды в Иэме
  • Монитор погоды в Иэме

АРХИВ ПОГОДЫ в Иэме

Время (UTC), дата Ветер
(напр.,м/с)
 
Видим.   Явления Облачность Т
(С)
Тd
(С)
f
(%)
Тe
(С)
Тes
(С)
Комфортность P
(гПа)
Po
(гПа)
Тmin
(С)
Tmax
(С)
R
(мм)
R24
(мм)
S
(см)
09 17.04 СЗ 6 2000 м слаб. снег 10/0 600 м
[As op]
-6.3 -9.0 81 -14 -14 1003.0 920.6 -5.7 2
12 17.04 СЗ 3 2000 м слаб. снег 10/0 600 м
[As op]
-7.0 -9.2 84 -13 -13 1004.6 921.8
15 17.04 З 3 1000 м слаб. снег 10/0 600 м
[As op]
-8.5 -10.9 83 -14 -14 1005.0 921.8
18 17.04 З 4 2000 м снег 10/0 600 м
[As op]
-8.7 -10.6 86 -16 -16 1005.2 921.9
21 17.04 З 6 2000 м слаб. снег 10/0 600 м
[As op]
-9.8 -12.4 81 -18 -18 1007.2 923.4 -10.0 3 35
00 18.04 З 6 10 км позёмок {снег} 10/0 600 м
[As op Cs]
-11.5 -14.3 80 -20 -19 1011.0 926.4
03 18.04 З 5 4000 м слаб. снег 10/0 600 м
[As op]
-10.7 -14.3 75 -19 -18 1013.0 928.4
06 18.04 З 5 50 км {снег} 9/8 600 м
[Sc Cs]
-10.4 -15.7 65 -18 -18 1016.0 931.3
09 18.04 С 1 50 км 10/4 600 м
[Sc As trans Cs]
-10.5 -14.9 70 -13 -12 1018.1 933.2 -9.8 0.4
12 18.04 СВ 1 50 км 4/0
[Ac lent Ci fib]
-17.7 -20.3 80 -21 -21 1022.4 934.8
15 18.04 штиль 0 50 км ясно -22.4 -25.6 75 -22 -22 1025.4 935.9
18 18.04 штиль 0 50 км ясно -31.6 -34.5 75 -32 -32 опасность
обморожения
1030.0 936.9
21 18.04 ЮВ 1 50 км ясно -32.3 -35.3 74 -37 -36 опасность
обморожения
1032.1 937.5 -33.6 33
00 19.04 штиль 0 50 км ясно -25.5 -28.7 74 -26 -18 1028.5 937.7
03 19.04 штиль 0 50 км ясно -12.3 -17.5 65 -12 -1 1022.8 936.9
06 19.04 штиль 0 50 км ясно -8.3 -13.0 69 -9 -2 1020.1 935.6
09 19.04 штиль 0 50 км ясно -10.1 -17.4 55 -10 -9 1019.9 934.9 -8.0
12 19.04 СВ 1 50 км ясно -18.4 -24.3 60 -21 -21 1022.5 934.6
15 19.04 штиль 0 50 км ясно -26.5 -29.7 74 -27 -27 1025.2 934.4
18 19.04 штиль 0 50 км ясно -33.4 -36.3 75 -33 -33 опасность
обморожения
1028.2 934.6
21 19.04 штиль 0 50 км 3/0
[Ci fib]
-30.0 -33.0 75 -30 -29 1027.4 935.1 -36.5 33
00 20.04 штиль 0 50 км 9/0
[As trans Cs]
-23.4 -26.6 75 -23 -19 1024.9 935.2
03 20.04 штиль 0 50 км 8/0
[As trans Ci]
-10.6 -17.9 55 -11 -3 1018.7 933.7
06 20.04 З 1 50 км 9/0
[As trans Ci]
-5.7 -12.4 59 -8 -4 1015.3 932.0
09 20.04 В 4 50 км 8/0
[As trans Ci fib]
-3.6 -12.7 49 -9 -9 1012.5 930.1 -3.6
12 20.04 В 4 50 км 10/0
[Ac und]
-5.9 -12.7 59 -12 -12 1012.4 929.3
15 20.04 СВ 1 50 км 9/0
[Ac und Cc]
-8.5 -13.8 66 -11 -11 1012.6 928.7
18 20.04 Ю 1 50 км 6/0
[Ac und Ci fib]
-9.2 -12.7 76 -11 -11 1012.0 928.0
21 20.04 З 1 50 км 8/0
[Ac und Ci fib]
-11.0 -14.0 78 -13 -13 1011.9 927.3 -13.9 33
00 21.04 В 1 50 км 10/0
[As op]
-2.7 -8.4 65 -5 -3 1008.4 926.6
03 21.04 ЮВ 4 2000 м слаб. снег 10/0 600 м
[As op]
-1.0 -4.2 79 -7 -7 1007.5 926.3
06 21.04 Ю 4 50 км {ливн. осадки} 8/3 600 м
[Sc diur, vesp Ac cuf Cc]
+0.6 -5.9 62 -4 -3 1006.4 925.7
09 21.04 ЮВ 6 50 км 9/6 600 м
[Sc Ac trans Ci fib]
-0.5 -7.2 60 -7 -7 1007.0 925.9 +0.6 0.0
12 21.04 ЮВ 4 50 км 6/0
[As trans Cs]
-3.2 -8.7 66 -9 -9 1008.2 926.3
15 21.04 Ю 3 50 км 9/0
[As op]
-7.0 -10.8 74 -13 -13 1009.5 926.4
18 21.04 Ю 7-11
{11}
50 км 8/0
[Ac lent Cs]
-3.0 -7.2 73 -11 -11 1007.8 926.0
21 21.04 ЮВ 6-10
{11}
50 км 9/6 600 м
[Sc As trans Cs]
-4.0 -7.7 75 -11 -11 1008.1 925.9 -7.0 31
00 22.04 Ю 5 50 км 9/6 600 м
[Sc Ac lent Ci fib]
-2.0 -7.4 67 -8 -8 1008.4 926.8
03 22.04 Ю 3 50 км 10/0 1000 м
[Ac und]
-2.6 -8.7 63 -7 -5 1008.1 926.4
06 22.04 Ю 3 50 км 10/10 1000 м
[Sc]
-2.6 -8.7 63 -7 -7 1008.1 926.4
09 22.04 Ю 3 50 км 9/0
[As trans Cs]
-2.1 -8.4 62 -7 -6 1008.4 926.8 -0.3
12 22.04 В 2 50 км 10/4 600 м
[Sc diur, vesp Cs]
-4.4 -9.5 68 -8 -8 1009.7 927.3
15 22.04 штиль 0 50 км 8/0
[Cs]
-7.4 -10.9 76 -8 -8 1011.1 927.7
18 22.04 В 1 50 км 10/0
[Ac lent Cs]
-10.5 -13.3 80 -13 -13 1012.5 928.0
21 22.04 штиль 0 2000 м слаб. снег 10/0 600 м
[As op]
-10.5 -12.5 85 -11 -11 1013.1 928.5 -15.2 0.2 30
00 23.04 штиль 0 20 км слаб. снег 10/0
[As op]
-5.6 -8.6 79 -6 -5 1011.6 928.7
03 23.04 штиль 0 50 км {снег} 10/10 600 м
[Sc]
-1.6 -8.9 57 -2 -2 1010.4 928.7
06 23.04 штиль 0 50 км {снег} 4/4 600 м
[Sc]
+0.4 -9.7 47 0 +5 1009.7 928.7
09 23.04 ЮЗ 1 50 км 4/3 600 м
[Sc diur, vesp Ac lent]
-2.7 -11.7 50 -4 -4 1011.1 929.1 +0.4 0.0
12 23.04 СВ 2 50 км 4/3 600 м
[Sc Ac lent]
-8.8 -14.8 62 -13 -13 1014.0 929.9
15 23.04 штиль 0 50 км 6/0
[Ac As]
-16.1 -19.5 75 -16 -16 1017.5 930.8
18 23.04 штиль 0 50 км 8/0
[Ac cuf Ci fib]
-16.0 -18.7 80 -16 -16 1018.5 931.7
21 23.04 штиль 0 50 км 3/0
[Ac lent]
-19.4 -22.0 80 -19 -18 1019.9 931.9 -21.0 30
00 24.04 Ю 2 50 км 3/0
[Cc]
-7.4 -11.3 74 -12 -6 1015.8 931.9
03 24.04 З 2 50 км 3/3 600 м
[Sc diur, vesp]
-2.3 -10.0 55 -6 +1 1013.4 931.4
06 24.04 ЮЗ 5 50 км 4/4 600 м
[Sc diur, vesp]
-1.6 -10.3 51 -7 -6 1012.7 930.8

 

Местоположение метеостанции Иэма (Якутия, Россия): широта 65.30 долгота 135.80 высота над уровнем моря 675 м.

В архиве по умолчанию представлена погода в Иэме за последнюю неделю. Архивные данные за месяц целиком и за предыдущие месяцы, начиная с января 2011 года, Вы можете получить, выбрав интересующий диапазон дат из раскрывающегося списка и нажав кнопку "Ввод!".


*Определитесь, кто Вы:
робот инопланетянин человек

Внимание! Время в таблицах - всемирное. Для получения местного времени необходимо прибавить поправку, которая равна 9 ч.

Смотрите также архив погоды в соседних городах и на ближайших метеорологических станциях:

Погода в Томпо (Якутия, Россия) (150 км)
Погода в Усть-Чарках (Якутия, Россия) (171 км)
Погода в Екюччю (Якутия, Россия) (250 км)
Погода в Батагае (Якутия, Россия) (267 км)
Погода в Себян-Кюеле (Якутия, Россия) (269 км)
Погода в Верхоянске (Якутия, Россия) (274 км)
Погода в Крест-Хальджае (Якутия, Россия) (284 км)
Погода в Теплом Ключе (Якутия, Россия) (284 км)
Погода в Верхоянском Перевозе (Якутия, Россия) (286 км)
Погода в Восточной (Якутия, Россия) (294 км)

Пояснения к столбцам:

Ветер - указаны скорость ветра в м/с - средняя за 10 мин, порывы в срок и между сроками (в фигурных скобках) и направление, откуда дует ветер: С - северный, СВ - северо-восточный, В - восточный, ЮВ - юго-восточный, Ю - южный, ЮЗ - юго-западный, З - западный, СЗ - северо-западный.
Видимость - горизонтальная дальность видимости в метрах или километрах. При видимости от 1 до 10 км при отсутствии осадков обычно наблюдается дымка, при ухудшении видимости до 1 км и менее - туман. В сухую погоду видимость может ухудшаться дымом, пылью или мглою.
Явления - указаны атмосферные явления, наблюдавшиеся в срок или в последний час перед сроком; фигурными скобками обозначены явления, наблюдавшиеся между сроками (за 1-3 часа до срока); квадратными скобками обозначены град или гололедные отложения с указанием их диаметра в мм.
Облачность - указаны через наклонную черту общая и нижняя облачность в баллах и высота нижней границы облаков в метрах; квадратными скобками обозначены формы облаков: Ci - перистые, Cs - перисто-слоистые, Cc - перисто-кучевые, Ac - высококучевые, As - высокослоистые, Sc - слоисто-кучевые, Ns - слоисто-дождевые, Cu - кучевые, Cb - кучево-дождевые. Подробнее классификацию облаков см. в Атласе облаков (PDF).
T - Температура воздуха - температура, измеренная на высоте 2 м над землей.
Td - Температура точки росы - температура, при понижении до которой содержащийся в воздухе водяной пар достигнет насыщения.
f - Относительная влажность воздуха - влажноcть воздуха, измеренная на высоте 2 м над землей.
Te - Эффективная температура - температура, которую ощущает одетый по сезону человек в тени. Характеристика душности погоды. При расчете учитывается влияние влажности воздуха и скорости ветра на теплоощущения человека.
Tes - Эффективная температура на солнце - температура, которую ощущает человек, с поправкой на солнечный нагрев. Характеристика знойности погоды. Зависит от высоты солнца над горизонтом, облачности и скорости ветра. Ночью, в пасмурную погоду, а также при ветре 12 м/с и более поправка равна нулю.
P - Атмосферное давление - приведенное к уровню моря атмосферное давление.
Po - Атмосферное давление - измеренное на уровне метеостанции атмосферное давление.
Tmin - Минимальная температура - минимум температуры воздуха на высоте 2 м над землей.
Tmax - Максимальная температура - максимум температуры воздуха на высоте 2 м над землей.
R - Количество осадков - Количество выпавших осадков за период времени, мм. При наведении курсора мыши на число - период времени, за который выпало указанное количество осадков.
R24 - Количество осадков - Количество выпавших осадков за 24 часа, мм.
S - Снежный покров - Высота снежного покрова, см. При наведении курсора мыши на число - состояние снежного покрова и степень покрытия местности в баллах.